Location: Allonne
(49.4086°N, 2.1143°E)
Time: 14:32:59
(UTC+00:00)

Cosmos 2369 Rocket - Pass Details

Date: 03 February 2023
Orbit: 829 x 852 km, 71.0° (Epoch: 25 March)

Event Time Altitude Azimuth Distance (km) Brightness Sun altitude
Rises 20:12:07 0° 334° (NNW) 3,383 5.8 -32.8°
Reaches altitude 10° 20:15:16 10° 352° (N) 2,446 4.8 -33.3°
Enters shadow 20:16:12 13° 360° (N) 2,219 4.5 -33.5°
